User: anonymous   Login
Location: Mentone
(34.5413°N, 85.5351°W)
Time: 06:47:23
(UTC-06:00)
Language:

Uosat F - Orbit

View from above orbital plane
View from above orbital plane
View from above satellite
View from above satellite

Ground track
Ground track

The orbit data is extracted from the following two-line orbital elements,

1 21575U 91050B   17015.16035268 -.00000000  00000-0  14458-4 0  9997
2 21575  98.7623  27.8720 0008029  42.2180 317.9625 14.40779415339245
Epoch (UTC): 15 January 2017 03:50:54
Eccentricity: 0.0008029
inclination: 98.7623°
perigee height: 750 km
apogee height: 761 km
right ascension of ascending node: 27.8720°
argument of perigee: 42.2180°
revolutions per day: 14.40779415
mean anomaly at epoch: 317.9625°
orbit number at epoch: 33924

The dashed part of the orbit path shows where the satellite is in the earth's shadow,  

DLR